This demonstration page uses our WeatherBlox Daily Observations layout. Learn more.

Left ArrowRight Arrow

34.02893, -84.19858

Hourly Observations for February 7, 2020

Temp ( °F °C ) Dew Point ( °F °C ) Humidity (%) Winds ( mph kmh ) Pressure ( in mb ) Visibility ( mi km ) Precip ( " mm )
12:15 am 00:15 Cloudy 48 8.9 47 8.3 96 96 W 12 19 29.42 996 9 14 0.00 0.00
12:53 am 00:53 Cloudy 48 8.9 46 7.8 93 93 W 12 19 29.39 995 10 16 0.00 0.00
1:17 am 01:17 Cloudy 48 8.9 45 7.2 89 89 W 17 28 29.42 996 10 16 0.00 0.00
1:28 am 01:28 Cloudy 48 8.9 45 7.2 89 89 WSW 16 26 29.43 996 10 16 0.00 0.00
1:53 am 01:53 Cloudy 47 8.3 42 5.6 83 83 WSW 18 30 29.42 996 10 16 0.00 0.00
2:24 am 02:24 Cloudy 45 7.2 40 4.4 83 83 W 24 39 29.48 998 10 16 0.00 0.00
2:53 am 02:53 Cloudy 43 6.1 39 3.9 86 86 W 15 24 29.48 998 10 16 0.00 0.00
3:53 am 03:53 Mostly Cloudy 41 5 35 1.7 79 79 W 15 24 29.53 1000 10 16 0.00 0.00
4:53 am 04:53 Mostly Cloudy 39 3.9 34 1.1 82 82 W 15 24 29.58 1002 10 16 0.00 0.00
5:16 am 05:16 Mostly Clear 38 3.3 33 0.6 83 83 W 18 30 29.63 1003 10 16 0.00 0.00
5:53 am 05:53 Mostly Clear 37 2.8 31 -0.6 79 79 W 18 30 29.63 1003 10 16 0.00 0.00
6:53 am 06:53 Mostly Cloudy 36 2.2 30 -1.1 79 79 W 15 24 29.67 1005 10 16 0.00 0.00
7:01 am 07:01 Cloudy 37 2.8 30 -1.1 76 76 W 14 22 29.70 1006 10 16 0.00 0.00
7:10 am 07:10 Cloudy 36 2.2 30 -1.1 79 79 W 20 31 29.72 1006 10 16 0.00 0.00
7:53 am 07:53 Cloudy 35 1.7 29 -1.7 78 78 W 18 30 29.72 1007 10 16 0.01 0.25
8:53 am 08:53 Cloudy 35 1.7 29 -1.7 78 78 W 16 26 29.78 1008 10 16 0.00 0.00
9:53 am 09:53 Cloudy 36 2.2 27 -2.8 70 70 W 16 26 29.83 1010 10 16 0.00 0.00
10:06 am 10:06 Cloudy 36 2.2 27 -2.8 70 70 W 14 22 29.86 1011 10 16 0.00 0.00
10:53 am 10:53 Cloudy 37 2.8 25 -3.9 62 62 W 17 28 29.86 1011 10 16 0.00 0.00
11:53 am 11:53 Cloudy 38 3.3 25 -3.9 60 60 W 21 33 29.88 1012 10 16 0.00 0.00
12:53 pm 12:53 Cloudy 38 3.3 26 -3.3 62 62 W 15 24 29.90 1013 10 16 0.00 0.00
1:53 pm 13:53 Cloudy 37 2.8 25 -3.9 62 62 WSW 17 28 29.92 1013 10 16 0.00 0.00
2:53 pm 14:53 Cloudy 37 2.8 26 -3.3 65 65 W 12 19 29.96 1015 10 16 0.00 0.00
3:53 pm 15:53 Cloudy 38 3.3 25 -3.9 60 60 W 17 28 29.97 1015 10 16 0.00 0.00
4:53 pm 16:53 Cloudy 39 3.9 25 -3.9 57 57 WNW 13 20 29.99 1016 10 16 0.00 0.00
5:53 pm 17:53 Mostly Cloudy 38 3.3 24 -4.4 57 57 W 12 19 30.03 1017 10 16 0.00 0.00
6:53 pm 18:53 Clear 35 1.7 25 -3.9 67 67 NW 6 9 30.07 1018 10 16 0.00 0.00
7:53 pm 19:53 Clear 34 1.1 26 -3.3 73 73 WNW 5 7 30.11 1020 10 16 0.00 0.00
8:53 pm 20:53 Clear 33 0.6 26 -3.3 75 75 NW 5 7 30.13 1020 10 16 0.00 0.00
9:53 pm 21:53 Clear 34 1.1 26 -3.3 73 73 Calm 30.16 1021 10 16 0.00 0.00
10:53 pm 22:53 Clear 29 -1.7 26 -3.3 89 89 Calm 30.17 1022 10 16 0.00 0.00
11:53 pm 23:53 Clear 29 -1.7 26 -3.3 89 89 Calm 30.20 1023 10 16 0.00 0.00

Powered by AerisWeather